Regional Weather Roundup
Issued by NWS

Home | Current Version | Previous Version | Graphics & Text | Print | Product List | Glossary On
Versions: 1 2 3 4 5 6 7 8 9 10 11 12 13 14 15 16 17 18 19 20 21 22 23 24 25 26 27 28 29 30 31 32 33 34 35 36 37 38 39 40 41 42 43 44 45 46 47 48 49 50
000
ASUS43 KBIS 011101
RWRND

NORTH DAKOTA REGIONAL WEATHER ROUNDUP
NATIONAL WEATHER SERVICE BISMARCK ND
500 AM CST SUN MAR 01 2015

NOTE: "FAIR" INDICATES FEW OR NO CLOUDS BELOW 12,000 FEET WITH NO
SIGNIFICANT WEATHER AND/OR OBSTRUCTIONS TO VISIBILITY.


NDZ001>003-009>011-017-011200-
NORTHWEST NORTH DAKOTA

CITY           SKY/WX    TMP DP  RH WIND       PRES   REMARKS
WILLISTON      CLOUDY    11   7  84 SE3       30.15R
MINOT          MOCLDY    10   2  69 SW16      30.09S WCI  -7
$$

NDZ018>021-031>035-040>046-011200-
SOUTHWEST NORTH DAKOTA

CITY           SKY/WX    TMP DP  RH WIND       PRES   REMARKS
BISMARCK       CLOUDY     6   1  80 SW3       30.18S
DICKINSON      MOCLDY    12   7  80 W14       30.10S WCI  -3
GARRISON         N/A      6   1  80 W9        30.11S WCI  -8
HETTINGER ARPT CLOUDY     9   5  84 W7        30.15S WCI  -2
$$

NDZ004>008-012>016-024-026-027-054-011200-
NORTHEAST NORTH DAKOTA

CITY           SKY/WX    TMP DP  RH WIND       PRES   REMARKS
GRAND FORKS    CLEAR      2  -4  76 SW10      30.15S WCI -14
GRND FRKS AFB  CLEAR      2  -4  74 W10       30.14S WCI -14
DEVILS LAKE    CLEAR      1  -6  71 W10       30.10R WCI -14
$$

NDZ022-023-025-028>030-036>039-047>053-011200-
SOUTHEAST NORTH DAKOTA

CITY           SKY/WX    TMP DP  RH WIND       PRES   REMARKS
FARGO          CLEAR      0  -5  79 SW10      30.21S WCI -16
JAMESTOWN      CLEAR      4  -2  76 W9        30.14S WCI -10
$$




USA.gov is the U.S. government's official web portal to all federal, state and local government web resources and services.